Afton Municipal Airport, WY

7:21 PM MST on December 06, 2019 (GMT -0700)
Afton Municipal

Weather History for KAFO - October, 2019

Change the Weather History Date:

Thursday, October 17, 2019

  Actual Average Record
Temperature  
Mean Temperature 44 °F -  
Max Temperature 62 °F 58 °F 71 °F (2015)
Min Temperature 26 °F 23 °F 19 °F (2017)
Degree Days  
Heating Degree Days 21    
Moisture  
Dew Point 27 °F    
Average Humidity 63    
Maximum Humidity 100    
Minimum Humidity 26    
Precipitation  
Precipitation 0.00 in - - ()
Sea Level Pressure  
Sea Level Pressure 29.83 in    
Wind  
Wind Speed 4 mph ()    
Max Wind Speed 24 mph    
Max Gust Speed 32 mph    
Visibility 9.3 miles    
Events Rain    
Averages and records for this station are not official NWS values.
T = Trace of Precipitation, MM = Missing Value Source: Averaged Metar Reports

Daily Weather History Graph

Daily Weather History Graph

Search for Another Location

Airport or City:

Astronomy

Oct. 17, 2019 Rise Set
Actual Time 7:39 AM MDT 6:38 PM MDT
Civil Twilight 7:10 AM MDT 7:06 PM MDT
Nautical Twilight 6:37 AM MDT 7:39 PM MDT
Astronomical Twilight 6:05 AM MDT 8:12 PM MDT
Moon 9:08 PM MDT (10/17) 11:18 AM MDT (10/17)
Length of Visible Light 11h 56m
Length of Day
10h 59m
Waning Gibbous, 86% of the Moon is Illuminated
Oct 17
Waning Gibbous
Oct 21
Last Quarter
Oct 27
New
Nov 4
First Quarter
Nov 12
Full

Hourly Weather History & Observations

Time (MDT) Temp. Windchill Dew Point Humidity Pressure Visibility Wind Dir Wind Speed Gust Speed Precip Events Conditions
12:15 AM 35.6 °F - 19.4 °F 52% 30.02 in 10.0 mi Calm Calm - N/A   Clear
12:35 AM 33.8 °F - 21.2 °F 60% 30.00 in 10.0 mi Calm Calm - N/A   Clear
12:55 AM 33.8 °F - 21.2 °F 60% 30.00 in 10.0 mi Calm Calm - N/A   Clear
1:15 AM 33.8 °F 27.7 °F 19.4 °F 56% 29.99 in 10.0 mi SSW 6.9 mph - N/A   Clear
1:35 AM 32.0 °F - 19.4 °F 60% 29.99 in 10.0 mi Calm Calm - N/A   Clear
1:55 AM 32.0 °F 28.7 °F 21.2 °F 64% 29.98 in 10.0 mi SSW 3.5 mph - N/A   Clear
2:15 AM 32.0 °F - 21.2 °F 64% 29.97 in 10.0 mi Calm Calm - N/A   Clear
2:35 AM 32.0 °F - 21.2 °F 64% 29.95 in 10.0 mi Calm Calm - N/A   Clear
2:55 AM 32.0 °F - 21.2 °F 64% 29.95 in 10.0 mi Calm Calm - N/A   Clear
3:15 AM 30.2 °F - 21.2 °F 69% 29.95 in 10.0 mi Calm Calm - N/A   Clear
3:30 AM 30.2 °F - 21.2 °F 69% 29.93 in 10.0 mi Calm Calm - N/A   Clear
3:55 AM 32.0 °F - 21.2 °F 64% 29.92 in 10.0 mi Calm Calm - N/A   Clear
4:15 AM 30.2 °F - 23.0 °F 75% 29.91 in 10.0 mi Calm Calm - N/A   Clear
4:35 AM 32.0 °F - 21.2 °F 64% 29.90 in 10.0 mi Calm Calm - N/A   Clear
4:55 AM 32.0 °F - 21.2 °F 64% 29.89 in 10.0 mi Calm Calm - N/A   Clear
5:15 AM 32.0 °F - 21.2 °F 64% 29.89 in 10.0 mi Calm Calm - N/A   Clear
5:35 AM 30.2 °F - 23.0 °F 75% 29.87 in 10.0 mi Calm Calm - N/A   Clear
5:55 AM 30.2 °F - 23.0 °F 75% 29.87 in 10.0 mi Calm Calm - N/A   Clear
6:15 AM 32.0 °F - 23.0 °F 69% 29.87 in 10.0 mi Calm Calm - N/A   Clear
6:35 AM 30.2 °F - 23.0 °F 75% 29.86 in 10.0 mi Calm Calm - N/A   Clear
6:55 AM 28.4 °F - 23.0 °F 80% 29.86 in 10.0 mi Calm Calm - N/A   Clear
7:15 AM 28.4 °F - 23.0 °F 80% 29.85 in 10.0 mi Calm Calm - N/A   Clear
7:35 AM 26.6 °F - 23.0 °F 86% 29.84 in 10.0 mi Calm Calm - N/A   Clear
7:55 AM 30.2 °F 26.7 °F 23.0 °F 75% 29.84 in 10.0 mi North 3.5 mph - N/A   Clear
8:15 AM 32.0 °F 28.7 °F 23.0 °F 69% 29.84 in 10.0 mi ENE 3.5 mph - N/A   Clear
8:35 AM 32.0 °F 28.7 °F 24.8 °F 75% 29.84 in 10.0 mi WSW 3.5 mph - N/A   Clear
8:55 AM 32.0 °F - 26.6 °F 80% 29.83 in 10.0 mi Calm Calm - N/A   Clear
9:15 AM 32.0 °F 27.5 °F 26.6 °F 80% 29.83 in 10.0 mi North 4.6 mph - N/A   Clear
9:35 AM 32.0 °F - 28.4 °F 87% 29.82 in 10.0 mi Calm Calm - N/A   Clear
9:55 AM 33.8 °F - 26.6 °F 75% 29.82 in 10.0 mi Calm Calm - N/A   Clear
10:15 AM 35.6 °F - 26.6 °F 70% 29.81 in 10.0 mi Calm Calm - N/A   Clear
10:35 AM 37.4 °F - 28.4 °F 70% 29.80 in 10.0 mi Calm Calm - N/A   Clear
11:15 AM 41.0 °F 39.0 °F 30.2 °F 65% 29.79 in 10.0 mi North 3.5 mph - N/A   Clear
11:35 AM 44.6 °F - 30.2 °F 57% 29.80 in 10.0 mi North - - N/A   Clear
11:55 AM 46.4 °F - 30.2 °F 53% 29.80 in 10.0 mi Calm Calm - N/A   Clear
12:15 PM 53.6 °F - 30.2 °F 41% 29.78 in 10.0 mi ESE 3.5 mph - N/A   Clear
12:35 PM 62.6 °F - 26.6 °F 26% 29.77 in 10.0 mi South 18.4 mph 28.8 mph N/A   Scattered Clouds
12:55 PM 62.6 °F - 28.4 °F 27% 29.76 in 10.0 mi SW 16.1 mph 25.3 mph N/A   Mostly Cloudy
1:15 PM 59.0 °F - 26.6 °F 29% 29.75 in 10.0 mi WSW 18.4 mph 32.2 mph N/A   Overcast
1:35 PM 62.6 °F - 28.4 °F 27% 29.74 in 10.0 mi SW 11.5 mph 23.0 mph N/A   Mostly Cloudy
1:55 PM 60.8 °F - 28.4 °F 29% 29.72 in 10.0 mi SW 15.0 mph 20.7 mph N/A   Mostly Cloudy
2:15 PM 59.0 °F - 28.4 °F 31% 29.71 in 10.0 mi WSW 16.1 mph 27.6 mph N/A   Mostly Cloudy
2:35 PM 60.8 °F - 28.4 °F 29% 29.70 in 10.0 mi WSW 16.1 mph 24.2 mph N/A   Scattered Clouds
2:55 PM 59.0 °F - 28.4 °F 31% 29.70 in 10.0 mi SW 16.1 mph 20.7 mph N/A   Mostly Cloudy
3:15 PM 60.8 °F - 28.4 °F 29% 29.70 in 10.0 mi SW 17.3 mph 20.7 mph N/A   Mostly Cloudy
3:35 PM 60.8 °F - 28.4 °F 29% 29.70 in 10.0 mi WSW 17.3 mph 23.0 mph N/A   Mostly Cloudy
3:55 PM 59.0 °F - 28.4 °F 31% 29.69 in 10.0 mi WSW 16.1 mph - N/A   Mostly Cloudy
4:15 PM 60.8 °F - 30.2 °F 31% 29.70 in 10.0 mi SW 15.0 mph 21.9 mph N/A   Scattered Clouds
4:35 PM 59.0 °F - 28.4 °F 31% 29.70 in 10.0 mi SW 12.7 mph 21.9 mph N/A   Mostly Cloudy
4:55 PM 57.2 °F - 28.4 °F 33% 29.70 in 10.0 mi WSW 12.7 mph - N/A   Mostly Cloudy
5:15 PM 55.4 °F - 28.4 °F 36% 29.71 in 10.0 mi WNW 13.8 mph 21.9 mph N/A   Overcast
5:35 PM 51.8 °F - 30.2 °F 44% 29.72 in 10.0 mi NW 10.4 mph 20.7 mph N/A   Overcast
5:55 PM 50.0 °F - 30.2 °F 47% 29.73 in 10.0 mi NNE 8.1 mph - N/A   Overcast
6:15 PM 50.0 °F - 30.2 °F 47% 29.74 in 10.0 mi NNW 13.8 mph - N/A   Overcast
6:35 PM 48.2 °F - 30.2 °F 50% 29.75 in 10.0 mi NNW 15.0 mph 24.2 mph N/A   Overcast
6:55 PM 46.4 °F 38.1 °F 30.2 °F 53% 29.77 in 10.0 mi NW 24.2 mph 29.9 mph N/A   Overcast
7:15 PM 41.0 °F 33.1 °F 33.8 °F 76% 29.79 in 10.0 mi NW 15.0 mph - N/A Rain Rain
7:35 PM 39.2 °F 31.2 °F 33.8 °F 81% 29.81 in 10.0 mi North 13.8 mph - N/A Rain Light Rain
8:15 PM 37.4 °F 31.4 °F 33.8 °F 87% 29.83 in 10.0 mi North 8.1 mph - N/A Rain Light Rain
8:35 PM 35.6 °F 27.5 °F 33.8 °F 93% 29.84 in 3.0 mi NNE 11.5 mph - N/A Rain Rain
8:55 PM 33.8 °F 27.7 °F 32.0 °F 93% 29.85 in 3.0 mi North 6.9 mph - N/A   Overcast
9:15 PM 33.8 °F 26.4 °F 32.0 °F 93% 29.85 in 3.0 mi NNE 9.2 mph - N/A   Overcast
9:35 PM 33.8 °F 27.7 °F 32.0 °F 93% 29.85 in 5.0 mi NE 6.9 mph - N/A Rain Rain
9:55 PM 32.0 °F 27.5 °F 32.0 °F 100% 29.86 in 4.0 mi WNW 4.6 mph - N/A Rain Rain
10:15 PM 33.8 °F 28.6 °F 32.0 °F 93% 29.85 in 5.0 mi ENE 5.8 mph - N/A Rain Light Rain
10:35 PM 35.6 °F 31.7 °F 32.0 °F 87% 29.86 in 7.0 mi NE 4.6 mph - N/A Rain Light Rain
10:55 PM 32.0 °F 28.7 °F 32.0 °F 100% 29.86 in 4.0 mi NNW 3.5 mph - N/A Rain Rain
11:15 PM 33.8 °F 27.7 °F 32.0 °F 93% 29.84 in 5.0 mi East 6.9 mph - N/A Rain Light Rain
11:35 PM 33.8 °F 29.6 °F 32.0 °F 93% 29.84 in 10.0 mi SW 4.6 mph - N/A   Overcast
11:55 PM 32.0 °F - 32.0 °F 100% 29.86 in 10.0 mi North - - N/A   Overcast